| time (UTC) | temp F | wind direction | speed knots | gust knots | rain 1hr in | rain 24hr in | rain mn in | humidity % | barometer mb |
| 20260507213109 | 58 | 320 | 5.2 | 8.7 | 0.00 | 0.00 | 0.00 | 66 | 1015.3 |
| 20260507211610 | 59 | 309 | 4.3 | 10.4 | 0.00 | 0.00 | 0.00 | 65 | 1015.1 |
| 20260507210109 | 59 | 329 | 5.2 | 9.6 | 0.00 | 0.00 | 0.00 | 64 | 1015.0 |
| 20260507203110 | 58 | 324 | 0.9 | 4.3 | 0.00 | 0.00 | 0.00 | 67 | 1014.8 |
| 20260507201609 | 58 | 315 | 0.0 | 1.7 | 0.00 | 0.00 | 0.00 | 69 | 1014.5 |
| 20260507194610 | 59 | 238 | 0.0 | 0.0 | 0.00 | 0.00 | 0.00 | 69 | 1014.3 |
| 20260507193108 | 59 | 238 | 0.0 | 0.0 | 0.00 | 0.00 | 0.00 | 68 | 1014.2 |
| 20260507191608 | 60 | 235 | 0.0 | 0.9 | 0.00 | 0.00 | 0.00 | 68 | 1014.2 |
| 20260507190108 | 60 | 236 | 0.9 | 3.5 | 0.00 | 0.00 | 0.00 | 65 | 1014.0 |
| 20260507184608 | 60 | 238 | 0.0 | 0.0 | 0.00 | 0.00 | 0.00 | 65 | 1013.6 |
| 20260507183108 | 60 | 238 | 0.9 | 3.5 | 0.00 | 0.00 | 0.00 | 63 | 1013.5 |
| 20260507181609 | 62 | 206 | 1.7 | 3.5 | 0.00 | 0.00 | 0.00 | 61 | 1013.3 |
| 20260507180108 | 62 | 205 | 1.7 | 2.6 | 0.00 | 0.00 | 0.00 | 59 | 1013.0 |
| 20260507174608 | 64 | 182 | 1.7 | 2.6 | 0.00 | 0.00 | 0.00 | 56 | 1013.0 |
| 20260507173113 | 65 | 159 | 2.6 | 6.1 | 0.00 | 0.00 | 0.00 | 54 | 1012.9 |
| 20260507171612 | 66 | 286 | 1.7 | 2.6 | 0.00 | 0.00 | 0.00 | 53 | 1012.6 |
| 20260507164612 | 67 | 290 | 2.6 | 5.2 | 0.00 | 0.00 | 0.00 | 51 | 1012.2 |
| 20260507163113 | 68 | 269 | 2.6 | 6.1 | 0.00 | 0.00 | 0.00 | 49 | 1012.1 |
| 20260507161612 | 69 | 288 | 3.5 | 7.8 | 0.00 | 0.00 | 0.00 | 47 | 1012.1 |
| 20260507160112 | 69 | 281 | 0.9 | 3.5 | 0.00 | 0.00 | 0.00 | 47 | 1011.9 |
| 20260507154612 | 68 | 333 | 1.7 | 4.3 | 0.00 | 0.00 | 0.00 | 50 | 1011.9 |
| 20260507151612 | 69 | 284 | 6.1 | 9.6 | 0.00 | 0.00 | 0.00 | 49 | 1012.0 |
| 20260507143111 | 69 | 265 | 3.5 | 6.1 | 0.00 | 0.00 | 0.00 | 48 | 1011.7 |
| 20260507141611 | 69 | 300 | 1.7 | 7.8 | 0.00 | 0.00 | 0.00 | 46 | 1011.8 |
| 20260507140111 | 70 | 286 | 3.5 | 6.1 | 0.00 | 0.00 | 0.00 | 45 | 1011.9 |
| 20260507134611 | 70 | 253 | 3.5 | 7.0 | 0.00 | 0.00 | 0.00 | 44 | 1012.0 |
| 20260507131610 | 69 | 208 | 5.2 | 9.6 | 0.00 | 0.00 | 0.00 | 46 | 1012.3 |
| 20260507124610 | 70 | 215 | 3.5 | 12.2 | 0.00 | 0.00 | 0.00 | 45 | 1012.3 |
| 20260507123112 | 69 | 198 | 5.2 | 10.4 | 0.00 | 0.00 | 0.00 | 47 | 1012.3 |
| 20260507121610 | 70 | 272 | 7.0 | 11.3 | 0.00 | 0.00 | 0.00 | 48 | 1012.3 |
| 20260507120111 | 68 | 180 | 4.3 | 7.8 | 0.00 | 0.00 | 0.00 | 53 | 1012.4 |
| 20260507114610 | 67 | 192 | 5.2 | 7.8 | 0.00 | 0.00 | 0.00 | 54 | 1012.5 |
| 20260507113109 | 67 | 184 | 4.3 | 10.4 | 0.00 | 0.00 | 0.00 | 53 | 1012.5 |
| 20260507110109 | 67 | 240 | 3.5 | 7.0 | 0.00 | 0.00 | 0.00 | 53 | 1012.7 |
| 20260507104609 | 66 | 246 | 2.6 | 7.8 | 0.00 | 0.00 | 0.00 | 58 | 1012.6 |
| 20260507101609 | 66 | 183 | 4.3 | 8.7 | 0.00 | 0.00 | 0.00 | 59 | 1012.7 |
| 20260507100109 | 66 | 124 | 1.7 | 3.5 | 0.00 | 0.00 | 0.00 | 63 | 1012.5 |
| 20260507094609 | 64 | 156 | 5.2 | 8.7 | 0.00 | 0.00 | 0.00 | 63 | 1012.6 |
| 20260507093109 | 62 | 217 | 1.7 | 6.1 | 0.00 | 0.00 | 0.00 | 66 | 1012.7 |
| 20260507091609 | 62 | 182 | 3.5 | 7.0 | 0.00 | 0.00 | 0.00 | 65 | 1012.5 |
| 20260507084608 | 63 | 233 | 5.2 | 8.7 | 0.00 | 0.00 | 0.00 | 66 | 1012.2 |
| 20260507083108 | 62 | 221 | 2.6 | 7.8 | 0.00 | 0.00 | 0.00 | 69 | 1012.1 |
| 20260507080108 | 61 | 237 | 5.2 | 9.6 | 0.00 | 0.00 | 0.00 | 70 | 1011.8 |
| 20260507074608 | 60 | 194 | 5.2 | 11.3 | 0.00 | 0.00 | 0.00 | 70 | 1011.8 |
| 20260507073108 | 61 | 252 | 2.6 | 7.8 | 0.00 | 0.00 | 0.00 | 70 | 1011.7 |
| 20260507071608 | 59 | 232 | 5.2 | 7.8 | 0.00 | 0.00 | 0.00 | 75 | 1011.8 |
| 20260507070113 | 58 | 266 | 3.5 | 9.6 | 0.00 | 0.00 | 0.00 | 75 | 1011.6 |
| 20260507064613 | 59 | 227 | 4.3 | 7.8 | 0.00 | 0.00 | 0.00 | 75 | 1011.5 |
| 20260507063113 | 58 | 233 | 3.5 | 7.0 | 0.00 | 0.00 | 0.00 | 78 | 1011.4 |
| 20260507061612 | 57 | 209 | 1.7 | 7.8 | 0.00 | 0.00 | 0.00 | 79 | 1011.2 |
| 20260507060112 | 57 | 238 | 2.6 | 7.0 | 0.00 | 0.00 | 0.00 | 79 | 1011.0 |
| 20260507054612 | 56 | 290 | 1.7 | 7.8 | 0.00 | 0.00 | 0.00 | 81 | 1010.9 |
| 20260507053112 | 56 | 317 | 2.6 | 6.1 | 0.00 | 0.00 | 0.00 | 82 | 1010.8 |
| 20260507050112 | 56 | 241 | 0.9 | 7.0 | 0.00 | 0.00 | 0.00 | 84 | 1010.5 |
| 20260507043111 | 55 | 260 | 2.6 | 6.1 | 0.00 | 0.00 | 0.00 | 86 | 1010.1 |
| 20260507041612 | 54 | 273 | 0.9 | 6.1 | 0.00 | 0.00 | 0.00 | 88 | 1009.9 |
| 20260507040111 | 54 | 230 | 0.9 | 6.1 | 0.00 | 0.00 | 0.00 | 88 | 1009.8 |
| 20260507034611 | 54 | 242 | 1.7 | 3.5 | 0.00 | 0.00 | 0.00 | 89 | 1009.4 |
| 20260507033111 | 54 | 244 | 2.6 | 5.2 | 0.00 | 0.00 | 0.00 | 89 | 1009.4 |
| 20260507031611 | 53 | 267 | 0.0 | 0.0 | 0.00 | 0.00 | 0.00 | 90 | 1009.3 |
| 20260507030111 | 53 | 268 | 0.0 | 0.9 | 0.00 | 0.00 | 0.00 | 89 | 1009.1 |
| 20260507024611 | 53 | 268 | 0.0 | 0.9 | 0.00 | 0.00 | 0.00 | 89 | 1009.0 |
| 20260507023110 | 53 | 267 | 0.9 | 1.7 | 0.00 | 0.00 | 0.00 | 87 | 1008.9 |
| 20260507021611 | 54 | 268 | 0.0 | 1.7 | 0.00 | 0.00 | 0.00 | 86 | 1008.8 |
| 20260507020110 | 55 | 268 | 0.0 | 0.9 | 0.00 | 0.00 | 0.00 | 85 | 1008.9 |
| 20260507014610 | 55 | 268 | 0.9 | 2.6 | 0.00 | 0.00 | 0.00 | 84 | 1008.6 |
| 20260507013112 | 56 | 250 | 0.9 | 2.6 | 0.00 | 0.00 | 0.00 | 84 | 1008.6 |
| 20260507011610 | 56 | 244 | 2.6 | 5.2 | 0.00 | 0.00 | 0.00 | 83 | 1008.3 |
| 20260507010110 | 56 | 266 | 1.7 | 5.2 | 0.00 | 0.00 | 0.00 | 82 | 1008.0 |
| 20260507004610 | 56 | 245 | 3.5 | 7.0 | 0.00 | 0.00 | 0.00 | 82 | 1007.9 |
| 20260507003110 | 57 | 217 | 2.6 | 7.0 | 0.00 | 0.00 | 0.00 | 82 | 1007.7 |
| 20260507001610 | 57 | 274 | 1.7 | 5.2 | 0.00 | 0.00 | 0.00 | 81 | 1007.6 |
| 20260507000110 | 58 | 288 | 2.6 | 7.0 | 0.00 | 0.00 | 0.00 | 81 | 1007.2 |
| 20260506234610 | 58 | 263 | 3.5 | 8.7 | 0.00 | 0.00 | 0.00 | 81 | 1007.3 |
| 20260506233111 | 58 | 242 | 4.3 | 7.8 | 0.00 | 0.00 | 0.00 | 81 | 1007.0 |
| 20260506231609 | 58 | 217 | 1.7 | 3.5 | 0.00 | 0.00 | 0.00 | 79 | 1006.7 |
| 20260506230109 | 59 | 274 | 1.7 | 3.5 | 0.00 | 0.00 | 0.00 | 78 | 1006.3 |
| 20260506224611 | 58 | 254 | 3.5 | 6.1 | 0.00 | 0.00 | 0.00 | 77 | 1006.3 |
| 20260506223110 | 59 | 175 | 0.9 | 2.6 | 0.00 | 0.00 | 0.00 | 75 | 1006.2 |
| 20260506221609 | 59 | 154 | 0.0 | 1.7 | 0.00 | 0.00 | 0.00 | 74 | 1005.8 |
| 20260506220110 | 60 | 151 | 0.0 | 0.9 | 0.00 | 0.00 | 0.00 | 74 | 1005.8 |